Location: Unspecified
(0.0000°N, 0.0000°E)
Time: 04:19:17
(UTC+02:00)

Palapa 6 Rocket - Visible Passes

Search period start: 23 August 2017 00:00
Search period end: 02 September 2017 00:00
Orbit: 485 x 1220 km, 22.7° (Epoch: 22 August)

Date Brightness Start Highest point End Pass type
(mag) Time Alt. Az. Time Alt. Az. Time Alt. Az.
23 Aug 6.3 06:47:42 10° SSW 06:49:49 11° S 06:51:52 10° S visible
23 Aug 5.8 21:26:19 10° NNE 21:26:21 10° NNE 21:26:22 10° NNE visible
24 Aug 6.3 06:33:31 10° SSW 06:35:35 11° S 06:37:51 10° SSE visible
24 Aug 5.7 21:11:26 10° NNE 21:12:11 10° NNE 21:12:58 10° NNE visible
25 Aug 6.3 06:19:57 11° SSW 06:21:21 12° S 06:23:50 10° SSE visible
25 Aug 5.6 20:56:54 10° N 20:58:01 11° NNE 20:59:10 10° NE visible
25 Aug 6.1 22:41:55 10° NW 22:42:33 13° NW 22:42:33 13° NW visible
26 Aug 6.4 06:06:23 12° S 06:07:06 12° S 06:09:49 10° SSE visible
26 Aug 5.5 20:42:26 10° N 20:43:51 11° NNE 20:45:20 10° NE visible
26 Aug 5.7 22:27:46 10° NW 22:29:05 18° NW 22:29:05 18° NW visible
27 Aug 6.4 05:52:49 12° S 05:52:51 12° S 05:55:47 10° SSE visible
27 Aug 6.2 07:39:01 10° SSW 07:43:46 17° SSE 07:48:13 10° SE visible
27 Aug 5.3 20:28:00 10° N 20:29:41 12° NNE 20:31:28 10° NE visible
27 Aug 5.1 22:13:38 10° NW 22:15:40 25° NW 22:15:40 25° NW visible
28 Aug 6.5 05:39:17 12° S 05:39:17 12° S 05:41:44 10° SSE visible
28 Aug 6.2 07:24:11 10° SSW 07:29:28 19° SSE 07:34:26 10° SE visible
28 Aug 4.4 21:59:32 10° NW 22:02:18 36° NNW 22:02:18 36° NNW visible
29 Aug 6.5 05:25:46 12° SSE 05:25:46 12° SSE 05:27:41 10° SSE visible
29 Aug 6.1 07:09:25 10° SSW 07:15:08 21° SSE 07:20:33 10° ESE visible
29 Aug 3.6 21:45:28 10° WNW 21:48:58 54° NNW 21:48:58 54° NNW visible
30 Aug 6.6 05:12:17 12° SSE 05:12:17 12° SSE 05:13:37 10° SE visible
30 Aug 6.0 06:54:41 10° SSW 07:00:46 23° SSE 07:06:36 10° ESE visible
30 Aug 2.9 21:31:25 10° WNW 21:35:34 76° NNE 21:35:42 75° NE visible
31 Aug 6.7 04:58:50 11° SSE 04:58:50 11° SSE 04:59:31 10° SE visible
31 Aug 5.9 06:40:44 12° SSW 06:46:22 25° SSE 06:52:34 10° ESE visible
31 Aug 2.8 21:17:22 10° WNW 21:21:24 89° SSW 21:22:27 52° ESE visible
01 Sep 5.8 06:27:19 17° SSW 06:31:57 28° SSE 06:38:29 10° ESE visible
01 Sep 2.9 21:03:22 10° WNW 21:07:15 73° SSW 21:09:14 31° SE visible
